| time (UTC) | temp F | wind direction | speed knots | gust knots | rain 1hr in | rain 24hr in | rain mn in | humidity % | barometer mb |
| 20260506044532 | 49 | 0.0 | 0.0 | 0.03 | 1.08 | 0.02 | 1 | 1002.5 | |
| 20260506043651 | 49 | 0.0 | 0.0 | 0.04 | 1.07 | 0.01 | 1 | 1002.5 | |
| 20260506042530 | 49 | 0.0 | 0.0 | 0.05 | 1.07 | 0.01 | 1 | 1002.5 | |
| 20260506041629 | 49 | 0.0 | 0.0 | 0.07 | 1.07 | 0.01 | 1 | 1002.8 | |
| 20260506040529 | 49 | 0.0 | 0.0 | 0.08 | 1.06 | 0.00 | 1 | 1002.6 | |
| 20260506035528 | 50 | 0.0 | 0.0 | 0.10 | 1.06 | 1.06 | 1 | 1002.7 | |
| 20260506034627 | 50 | 0.0 | 0.9 | 0.10 | 1.05 | 1.05 | 1 | 1002.6 | |
| 20260506033556 | 50 | 0.0 | 0.0 | 0.11 | 1.03 | 1.03 | 1 | 1002.6 | |
| 20260506032556 | 50 | 0.0 | 0.0 | 0.11 | 1.02 | 1.02 | 1 | 1002.7 | |
| 20260506031625 | 50 | 270 | 0.9 | 2.6 | 0.11 | 1.00 | 1.00 | 1 | 1002.7 |
| 20260506030624 | 50 | 270 | 0.0 | 0.9 | 0.11 | 0.98 | 0.98 | 1 | 1002.5 |
| 20260506025613 | 50 | 270 | 0.9 | 2.6 | 0.11 | 0.95 | 0.95 | 1 | 1002.3 |
| 20260506024552 | 50 | 270 | 0.9 | 2.6 | 0.11 | 0.94 | 0.94 | 1 | 1002.5 |
| 20260506023622 | 50 | 270 | 0.9 | 2.6 | 0.08 | 0.91 | 0.91 | 1 | 1002.4 |
| 20260506022611 | 50 | 0.0 | 0.9 | 0.08 | 0.90 | 0.90 | 1 | 1002.5 | |
| 20260506021540 | 50 | 270 | 0.9 | 3.5 | 0.06 | 0.88 | 0.88 | 1 | 1002.7 |
| 20260506020619 | 50 | 0.0 | 0.0 | 0.05 | 0.86 | 0.86 | 1 | 1002.5 | |
| 20260506015618 | 50 | 0.0 | 0.0 | 0.05 | 0.84 | 0.84 | 1 | 1002.5 | |
| 20260506014547 | 50 | 0.0 | 0.0 | 0.04 | 0.83 | 0.83 | 1 | 1002.3 | |
| 20260506013616 | 50 | 0.0 | 0.0 | 0.05 | 0.83 | 0.83 | 1 | 1002.3 | |
| 20260506012615 | 50 | 0.0 | 0.0 | 0.04 | 0.82 | 0.82 | 1 | 1002.2 | |
| 20260506011645 | 50 | 0.0 | 0.0 | 0.04 | 0.82 | 0.82 | 1 | 1001.9 | |
| 20260506010634 | 50 | 0.0 | 0.0 | 0.03 | 0.81 | 0.81 | 1 | 1001.9 | |
| 20260506005612 | 50 | 0.0 | 0.0 | 0.01 | 0.79 | 0.79 | 1 | 1001.9 | |
| 20260506004541 | 50 | 0.0 | 0.0 | 0.03 | 0.79 | 0.79 | 1 | 1001.6 | |
| 20260506003541 | 50 | 0.0 | 0.0 | 0.03 | 0.78 | 0.78 | 1 | 1001.8 | |
| 20260506002610 | 50 | 0.0 | 0.0 | 0.04 | 0.78 | 0.78 | 1 | 1001.8 | |
| 20260506001629 | 50 | 0.0 | 0.0 | 0.12 | 0.78 | 0.78 | 1 | 1001.6 | |
| 20260506000639 | 50 | 270 | 0.0 | 0.9 | 0.14 | 0.78 | 0.78 | 1 | 1001.6 |
| 20260505235538 | 50 | 270 | 0.0 | 2.6 | 0.16 | 0.78 | 0.78 | 1 | 1002.2 |
| 20260505234537 | 50 | 270 | 0.9 | 2.6 | 0.19 | 0.76 | 0.76 | 1 | 1002.0 |
| 20260505233617 | 50 | 0.0 | 0.0 | 0.20 | 0.75 | 0.75 | 1 | 1002.1 | |
| 20260505232616 | 50 | 250 | 1.7 | 4.3 | 0.23 | 0.74 | 0.74 | 1 | 1002.3 |
| 20260505231535 | 50 | 270 | 0.0 | 2.6 | 0.18 | 0.66 | 0.66 | 1 | 1002.0 |
| 20260505230634 | 50 | 0.0 | 0.0 | 0.18 | 0.64 | 0.64 | 1 | 1002.1 | |
| 20260505225554 | 50 | 270 | 0.0 | 0.9 | 0.18 | 0.62 | 0.62 | 1 | 1002.3 |
| 20260505224533 | 50 | 0.0 | 0.0 | 0.15 | 0.57 | 0.57 | 2 | 1002.4 | |
| 20260505223532 | 50 | 270 | 0.9 | 2.6 | 0.17 | 0.55 | 0.55 | 3 | 1002.0 |
| 20260505222652 | 51 | 144 | 0.0 | 0.9 | 0.15 | 0.51 | 0.51 | 3 | 1001.9 |
| 20260505221531 | 51 | 241 | 0.9 | 3.5 | 0.14 | 0.48 | 0.48 | 5 | 1001.9 |
| 20260505220600 | 51 | 248 | 0.0 | 0.9 | 0.14 | 0.46 | 0.46 | 6 | 1001.9 |
| 20260505215530 | 51 | 248 | 0.0 | 2.6 | 0.14 | 0.44 | 0.44 | 6 | 1002.0 |
| 20260505214559 | 51 | 274 | 0.9 | 3.5 | 0.13 | 0.42 | 0.42 | 7 | 1002.1 |
| 20260505213548 | 51 | 293 | 0.9 | 2.6 | 0.11 | 0.38 | 0.38 | 8 | 1001.7 |
| 20260505212527 | 51 | 297 | 1.7 | 3.5 | 0.11 | 0.36 | 0.36 | 7 | 1001.6 |
| 20260505211527 | 52 | 308 | 1.7 | 4.3 | 0.11 | 0.34 | 0.34 | 7 | 1001.6 |
| 20260505210626 | 52 | 304 | 0.9 | 2.6 | 0.12 | 0.31 | 0.31 | 7 | 1001.6 |
| 20260505205555 | 53 | 300 | 0.9 | 2.6 | 0.14 | 0.29 | 0.29 | 8 | 1001.6 |
| 20260505204523 | 53 | 261 | 1.7 | 4.3 | 0.17 | 0.28 | 0.28 | 8 | 1001.4 |
| 20260505203603 | 54 | 258 | 1.7 | 6.1 | 0.19 | 0.26 | 0.26 | 8 | 1001.3 |
| 20260505202542 | 54 | 217 | 0.9 | 3.5 | 0.21 | 0.24 | 0.24 | 10 | 1001.4 |
| 20260505201551 | 55 | 307 | 0.9 | 4.3 | 0.21 | 0.22 | 0.22 | 11 | 1001.3 |
| 20260505200610 | 55 | 231 | 1.7 | 3.5 | 0.19 | 0.19 | 0.19 | 13 | 1001.6 |
| 20260505195548 | 55 | 221 | 1.7 | 6.1 | 0.15 | 0.15 | 0.15 | 15 | 1001.6 |
| 20260505194538 | 56 | 214 | 1.7 | 6.1 | 0.11 | 0.11 | 0.11 | 17 | 1001.6 |
| 20260505193547 | 56 | 219 | 2.6 | 6.1 | 0.07 | 0.07 | 0.07 | 23 | 1001.4 |
| 20260505192546 | 57 | 275 | 2.6 | 7.0 | 0.03 | 0.03 | 0.03 | 25 | 1001.3 |
| 20260505191545 | 57 | 232 | 2.6 | 6.1 | 0.01 | 0.01 | 0.01 | 28 | 1001.3 |
| 20260505190624 | 58 | 228 | 3.5 | 9.6 | 0.00 | 0.00 | 0.00 | 31 | 1001.3 |
| 20260505185603 | 58 | 242 | 3.5 | 8.7 | 0.00 | 0.00 | 0.00 | 31 | 1001.3 |
| 20260505184543 | 58 | 225 | 4.3 | 12.2 | 0.00 | 0.00 | 0.00 | 31 | 1001.4 |
| 20260505183542 | 59 | 236 | 4.3 | 12.2 | 0.00 | 0.00 | 0.00 | 31 | 1001.3 |
| 20260505182541 | 58 | 249 | 3.5 | 8.7 | 0.00 | 0.00 | 0.00 | 32 | 1001.3 |
| 20260505181540 | 59 | 232 | 2.6 | 7.0 | 0.00 | 0.00 | 0.00 | 34 | 1001.3 |
| 20260505180540 | 59 | 228 | 3.5 | 12.2 | 0.00 | 0.00 | 0.00 | 37 | 1001.1 |
| 20260505175539 | 59 | 227 | 3.5 | 8.7 | 0.00 | 0.00 | 0.00 | 38 | 1001.2 |
| 20260505174538 | 60 | 223 | 4.3 | 9.6 | 0.00 | 0.00 | 0.00 | 41 | 1001.0 |
| 20260505173558 | 60 | 234 | 3.5 | 12.2 | 0.00 | 0.00 | 0.00 | 43 | 1000.9 |
| 20260505172537 | 60 | 253 | 3.5 | 9.6 | 0.00 | 0.00 | 0.00 | 43 | 1000.6 |
| 20260505171557 | 60 | 230 | 3.5 | 8.7 | 0.00 | 0.00 | 0.00 | 47 | 1000.5 |
| 20260505170536 | 61 | 238 | 2.6 | 8.7 | 0.00 | 0.00 | 0.00 | 50 | 1000.3 |
| 20260505165625 | 62 | 230 | 3.5 | 13.0 | 0.00 | 0.00 | 0.00 | 54 | 1000.4 |
| 20260505164535 | 63 | 262 | 2.6 | 8.7 | 0.00 | 0.00 | 0.00 | 57 | 1000.5 |
| 20260505163534 | 64 | 239 | 6.1 | 13.0 | 0.00 | 0.00 | 0.00 | 59 | 1000.3 |
| 20260505162533 | 66 | 241 | 5.2 | 15.6 | 0.00 | 0.00 | 0.00 | 59 | 1000.3 |
| 20260505161532 | 67 | 249 | 3.5 | 8.7 | 0.00 | 0.00 | 0.00 | 59 | 1000.5 |
| 20260505160602 | 67 | 250 | 4.3 | 13.9 | 0.00 | 0.00 | 0.00 | 59 | 1000.3 |
| 20260505152529 | 68 | 240 | 4.3 | 10.4 | 0.00 | 0.00 | 0.00 | 58 | 999.2 |
| 20260505151558 | 68 | 225 | 7.8 | 13.9 | 0.00 | 0.00 | 0.00 | 58 | 999.3 |
| 20260505150528 | 67 | 232 | 5.2 | 13.9 | 0.00 | 0.00 | 0.00 | 58 | 999.6 |
| 20260505140612 | 68 | 215 | 6.1 | 16.5 | 0.00 | 0.00 | 0.00 | 58 | 998.6 |
| 20260505124605 | 65 | 206 | 4.3 | 13.0 | 0.00 | 0.00 | 0.00 | 59 | 998.3 |
| 20260505123624 | 65 | 222 | 4.3 | 13.0 | 0.00 | 0.00 | 0.00 | 59 | 998.3 |
| 20260505122543 | 65 | 224 | 5.2 | 15.6 | 0.00 | 0.00 | 0.00 | 59 | 997.9 |
| 20260505121542 | 65 | 199 | 4.3 | 10.4 | 0.00 | 0.00 | 0.00 | 58 | 997.6 |
| 20260505120622 | 66 | 202 | 6.1 | 15.6 | 0.00 | 0.00 | 0.00 | 58 | 997.3 |
| 20260505115541 | 66 | 191 | 3.5 | 9.6 | 0.00 | 0.00 | 0.00 | 58 | 997.6 |
| 20260505114540 | 66 | 229 | 3.5 | 8.7 | 0.00 | 0.00 | 0.00 | 58 | 997.3 |
| 20260505113605 | 66 | 221 | 5.2 | 18.2 | 0.00 | 0.00 | 0.00 | 58 | 997.5 |
| 20260505112559 | 66 | 216 | 5.2 | 12.2 | 0.00 | 0.00 | 0.00 | 57 | 997.5 |
| 20260505111608 | 66 | 234 | 6.1 | 12.2 | 0.00 | 0.00 | 0.00 | 57 | 997.5 |
| 20260505110537 | 66 | 234 | 7.0 | 13.9 | 0.00 | 0.00 | 0.00 | 58 | 997.3 |
| 20260505101534 | 67 | 216 | 7.8 | 16.5 | 0.00 | 0.00 | 0.00 | 57 | 996.8 |
| 20260505100534 | 67 | 226 | 7.0 | 12.2 | 0.00 | 0.00 | 0.00 | 57 | 996.6 |
| 20260505095603 | 67 | 222 | 3.5 | 7.0 | 0.00 | 0.00 | 0.00 | 57 | 996.4 |
| 20260505094532 | 67 | 227 | 7.0 | 16.5 | 0.00 | 0.00 | 0.00 | 58 | 996.3 |
| 20260505093532 | 67 | 240 | 4.3 | 10.4 | 0.00 | 0.00 | 0.00 | 58 | 995.9 |
| 20260505092531 | 67 | 220 | 4.3 | 10.4 | 0.00 | 0.00 | 0.00 | 58 | 995.9 |
| 20260505091530 | 66 | 224 | 4.3 | 10.4 | 0.00 | 0.00 | 0.00 | 58 | 996.0 |
| 20260505090529 | 66 | 218 | 5.2 | 15.6 | 0.00 | 0.00 | 0.00 | 59 | 995.8 |
| 20260505085528 | 65 | 216 | 2.6 | 8.7 | 0.00 | 0.00 | 0.00 | 59 | 995.7 |
| 20260505084528 | 66 | 200 | 1.7 | 4.3 | 0.00 | 0.00 | 0.00 | 58 | 995.8 |
| 20260505083526 | 66 | 242 | 1.7 | 8.7 | 0.00 | 0.00 | 0.00 | 58 | 996.0 |
| 20260505082526 | 67 | 258 | 2.6 | 12.2 | 0.00 | 0.00 | 0.00 | 57 | 996.0 |
| 20260505081555 | 67 | 238 | 2.6 | 12.2 | 0.00 | 0.00 | 0.00 | 57 | 995.7 |
| 20260505080554 | 68 | 220 | 2.6 | 8.7 | 0.00 | 0.00 | 0.00 | 56 | 995.7 |
| 20260505075553 | 68 | 206 | 5.2 | 10.4 | 0.00 | 0.00 | 0.00 | 56 | 995.7 |
| 20260505074613 | 68 | 225 | 4.3 | 10.4 | 0.00 | 0.00 | 0.00 | 55 | 995.5 |
| 20260505073541 | 69 | 199 | 4.3 | 10.4 | 0.00 | 0.00 | 0.00 | 55 | 995.4 |
| 20260505072550 | 69 | 212 | 6.1 | 12.2 | 0.00 | 0.00 | 0.00 | 55 | 995.5 |
| 20260505071550 | 69 | 197 | 5.2 | 12.2 | 0.00 | 0.00 | 0.00 | 55 | 995.3 |
| 20260505070548 | 69 | 195 | 6.1 | 10.4 | 0.00 | 0.00 | 0.00 | 55 | 995.2 |
| 20260505065548 | 69 | 197 | 7.0 | 13.0 | 0.00 | 0.00 | 0.00 | 55 | 995.2 |
| 20260505064517 | 69 | 213 | 6.1 | 20.0 | 0.00 | 0.00 | 0.00 | 55 | 995.3 |
| 20260505063546 | 69 | 184 | 5.2 | 12.2 | 0.00 | 0.00 | 0.00 | 55 | 995.4 |
| 20260505062545 | 69 | 192 | 7.0 | 15.6 | 0.00 | 0.00 | 0.00 | 56 | 995.5 |
| 20260505061544 | 69 | 216 | 6.1 | 19.1 | 0.00 | 0.00 | 0.00 | 56 | 995.9 |
| 20260505060543 | 68 | 193 | 5.2 | 13.9 | 0.00 | 0.00 | 0.00 | 57 | 995.7 |
| 20260505055542 | 68 | 212 | 6.1 | 12.2 | 0.00 | 0.00 | 0.00 | 58 | 996.1 |
| 20260505054541 | 67 | 199 | 6.1 | 12.2 | 0.00 | 0.00 | 0.00 | 58 | 996.4 |
| 20260505053541 | 67 | 184 | 3.5 | 10.4 | 0.00 | 0.00 | 0.00 | 58 | 996.3 |
| 20260505052540 | 67 | 183 | 5.2 | 12.2 | 0.00 | 0.00 | 0.00 | 58 | 996.6 |
| 20260505051600 | 68 | 189 | 3.5 | 10.4 | 0.00 | 0.00 | 0.00 | 57 | 996.5 |
| 20260505050539 | 68 | 179 | 4.3 | 15.6 | 0.00 | 0.00 | 0.00 | 57 | 996.7 |